Air Quality Table

TIMESTAMP NO2 SO2 PM10 PM2.5 CO TEMP HUM AIRPRES WS WD NO
2021-11-30 01:00 8.75 µg/m3 0.07 µg/m3 8.35 µg/m3 3.04 µg/m3 0.15 mg/m3 13.05 °C 66.12 % 1,012.05 mbar 8.69 m/s 231.69 Deg 2.88 µg/m3
2021-11-30 00:00 0.9 µg/m3 0.03 µg/m3 7.72 µg/m3 2.58 µg/m3 0.14 mg/m3 12.69 °C 65.93 % 1,011.73 mbar 10.66 m/s 217.89 Deg 0.47 µg/m3
2021-11-29 23:00 1.31 µg/m3 0.03 µg/m3 7.73 µg/m3 2.59 µg/m3 0.15 mg/m3 11.5 °C 72.1 % 1,011.52 mbar 10.1 m/s 238.6 Deg 0.18 µg/m3
2021-11-29 22:00 2.1 µg/m3 0.02 µg/m3 8.46 µg/m3 3.14 µg/m3 0.15 mg/m3 11.9 °C 72.56 % 1,010.66 mbar 9.11 m/s 247.06 Deg 0.39 µg/m3
2021-11-29 21:00 4.18 µg/m3 0.07 µg/m3 8.87 µg/m3 3.42 µg/m3 0.16 mg/m3 12.16 °C 73.04 % 1,009.67 mbar 8.07 m/s 261.22 Deg 0.72 µg/m3
2021-11-29 20:00 3.58 µg/m3 0.1 µg/m3 9.2 µg/m3 3.1 µg/m3 0.13 mg/m3 14.35 °C 55.56 % 1,008.58 mbar 12.4 m/s 231.71 Deg 0.68 µg/m3
2021-11-29 19:00 5.8 µg/m3 0.18 µg/m3 9.93 µg/m3 3.28 µg/m3 0.12 mg/m3 15.3 °C 49.02 % 1,007.48 mbar 13.46 m/s 224.18 Deg 1.79 µg/m3
2021-11-29 18:00 13.36 µg/m3 0.16 µg/m3 10.36 µg/m3 3.19 µg/m3 0.19 mg/m3 15.29 °C 57.27 % 1,006.42 mbar 12.41 m/s 222.68 Deg 6.12 µg/m3
2021-11-29 17:00 11.64 µg/m3 0.06 µg/m3 7.75 µg/m3 2.58 µg/m3 0.18 mg/m3 13.76 °C 70.38 % 1,006.00 mbar 11.76 m/s 214.08 Deg 1.34 µg/m3
2021-11-29 16:00 8.91 µg/m3 0.13 µg/m3 10.33 µg/m3 3.17 µg/m3 0.14 mg/m3 14.89 °C 61.26 % 1,005.17 mbar 13.13 m/s 212.75 Deg 1.44 µg/m3
2021-11-29 15:00 9.73 µg/m3 0.19 µg/m3 12.06 µg/m3 3.61 µg/m3 0.13 mg/m3 16.07 °C 55.39 % 1,004.53 mbar 13.95 m/s 207.75 Deg 1.79 µg/m3
2021-11-29 14:00 8.89 µg/m3 0.15 µg/m3 12.14 µg/m3 3.38 µg/m3 0.14 mg/m3 15.84 °C 56.67 % 1,004.54 mbar 13.95 m/s 204.82 Deg 2.19 µg/m3
2021-11-29 13:00 12.54 µg/m3 0.2 µg/m3 10.27 µg/m3 3.04 µg/m3 0.13 mg/m3 15.87 °C 55.24 % 1,005.34 mbar 13.7 m/s 202 Deg 5.76 µg/m3
2021-11-29 12:00 16.36 µg/m3 0.15 µg/m3 10.28 µg/m3 3.08 µg/m3 0.14 mg/m3 16.03 °C 52.73 % 1,005.90 mbar 13.22 m/s 206.93 Deg 3.51 µg/m3
2021-11-29 11:00 10.96 µg/m3 0.12 µg/m3 9.7 µg/m3 3.01 µg/m3 0.15 mg/m3 15.88 °C 52.09 % 1,006.17 mbar 12.63 m/s 203.43 Deg 3 µg/m3
2021-11-29 10:00 12.78 µg/m3 0.19 µg/m3 9.15 µg/m3 2.8 µg/m3 0.15 mg/m3 15.35 °C 52.26 % 1,006.36 mbar 11.43 m/s 205.28 Deg 3.51 µg/m3
2021-11-29 09:00 21.87 µg/m3 0.32 µg/m3 9.3 µg/m3 3.13 µg/m3 0.15 mg/m3 15.07 °C 53.43 % 1,006.26 mbar 10.73 m/s 208.33 Deg 5.39 µg/m3
2021-11-29 08:00 21.19 µg/m3 0.21 µg/m3 9.47 µg/m3 3.18 µg/m3 0.16 mg/m3 14.8 °C 53.53 % 1,005.80 mbar 9.77 m/s 209.96 Deg 2.21 µg/m3
2021-11-29 07:00 21.66 µg/m3 0.35 µg/m3 8.67 µg/m3 2.66 µg/m3 0.17 mg/m3 14.96 °C 52.12 % 1,005.11 mbar 9.9 m/s 207.13 Deg 6.2 µg/m3
2021-11-29 06:00 15.09 µg/m3 0.29 µg/m3 7.8 µg/m3 2.51 µg/m3 0.15 mg/m3 14.89 °C 53.78 % 1,004.66 mbar 8.96 m/s 210.03 Deg 3.56 µg/m3
2021-11-29 05:00 2.84 µg/m3 0.01 µg/m3 7.41 µg/m3 2.3 µg/m3 0.13 mg/m3 14.69 °C 57.63 % 1,004.41 mbar 8.59 m/s 215.64 Deg 0.33 µg/m3
2021-11-29 04:00 1.73 µg/m3 0.02 µg/m3 7.48 µg/m3 2.35 µg/m3 0.09 mg/m3 14.4 °C 62.4 % 1,004.11 mbar 7.81 m/s 228.13 Deg 0.48 µg/m3
2021-11-29 03:00 2.56 µg/m3 -0.01 µg/m3 7.62 µg/m3 2.43 µg/m3 0.06 mg/m3 14.89 °C 61 % 1,003.83 mbar 7.39 m/s 212.12 Deg 1.16 µg/m3
2021-11-29 02:00 2.67 µg/m3 -0.04 µg/m3 7.77 µg/m3 2.56 µg/m3 0.08 mg/m3 14.33 °C 69.47 % 1,003.69 mbar 6.13 m/s 221.07 Deg 0.17 µg/m3
2021-11-29 01:00 3.04 µg/m3 -0.01 µg/m3 7.95 µg/m3 2.72 µg/m3 0.09 mg/m3 14.2 °C 77.58 % 1,003.87 mbar 5.41 m/s 237.97 Deg 0.26 µg/m3
2021-11-29 00:00 6.05 µg/m3 0 µg/m3 7.98 µg/m3 2.72 µg/m3 0.1 mg/m3 14.79 °C 72.48 % 1,003.75 mbar 5.06 m/s 225.32 Deg 0.41 µg/m3
2021-11-28 23:00 37.4 µg/m3 0.39 µg/m3 11.46 µg/m3 5.12 µg/m3 0.13 mg/m3 15.27 °C 70.15 % 1,003.65 mbar 4.35 m/s 213.93 Deg 27.11 µg/m3
2021-11-28 22:00 7.09 µg/m3 0 µg/m3 9.66 µg/m3 3.63 µg/m3 0.1 mg/m3 15.55 °C 67.26 % 1,003.66 mbar 4.89 m/s 225.89 Deg 0.45 µg/m3
2021-11-28 21:00 14.83 µg/m3 -0.01 µg/m3 11.66 µg/m3 4.47 µg/m3 0.11 mg/m3 16.06 °C 65.74 % 1,003.11 mbar 5.2 m/s 208.93 Deg 0.69 µg/m3
2021-11-28 20:00 9.91 µg/m3 -0.02 µg/m3 10.41 µg/m3 4.01 µg/m3 0.11 mg/m3 16.2 °C 64.64 % 1,002.84 mbar 5.43 m/s 217.14 Deg 0.42 µg/m3
2021-11-28 19:00 9.1 µg/m3 -0.01 µg/m3 9.02 µg/m3 3.43 µg/m3 0.13 mg/m3 15.6 °C 76.69 % 1,002.37 mbar 5.67 m/s 212.53 Deg 0.51 µg/m3
2021-11-28 18:00 8.12 µg/m3 0.01 µg/m3 9.65 µg/m3 3.62 µg/m3 0.15 mg/m3 15.61 °C 83.1 % 1,001.68 mbar 6.67 m/s 211.27 Deg 0.71 µg/m3
2021-11-28 17:00 7.62 µg/m3 -0.01 µg/m3 8.43 µg/m3 2.92 µg/m3 0.15 mg/m3 15.89 °C 86.52 % 1,001.25 mbar 6.53 m/s 215.08 Deg 0.31 µg/m3
2021-11-28 16:00 11.39 µg/m3 0.02 µg/m3 8.1 µg/m3 2.84 µg/m3 0.14 mg/m3 17.5 °C 77.03 % 1,000.84 mbar 5.94 m/s 197.48 Deg 0.99 µg/m3
2021-11-28 15:00 9.26 µg/m3 0.01 µg/m3 8.06 µg/m3 2.82 µg/m3 0.15 mg/m3 17.32 °C 76.43 % 1,000.88 mbar 6.33 m/s 201.45 Deg 0.56 µg/m3
2021-11-28 14:00 18.06 µg/m3 0.08 µg/m3 8.14 µg/m3 2.87 µg/m3 0.16 mg/m3 16.97 °C 78.45 % 1,001.41 mbar 5.86 m/s 197.73 Deg 2.07 µg/m3
2021-11-28 13:00 45.82 µg/m3 0.33 µg/m3 9.1 µg/m3 3.6 µg/m3 0.18 mg/m3 16.15 °C 83.21 % 1,001.94 mbar 5.42 m/s 184.13 Deg 29.39 µg/m3
2021-11-28 12:00 48.66 µg/m3 0.38 µg/m3 10 µg/m3 4.26 µg/m3 0.21 mg/m3 15.13 °C 91.56 % 1,004.09 mbar 4.85 m/s 179.25 Deg 26.66 µg/m3
2021-11-28 11:00 55.09 µg/m3 0.54 µg/m3 10.92 µg/m3 4.94 µg/m3 0.19 mg/m3 14.39 °C 91.88 % 1,004.87 mbar 4.74 m/s 180.13 Deg 44.32 µg/m3
2021-11-28 10:00 14.24 µg/m3 0.06 µg/m3 9.21 µg/m3 3.62 µg/m3 0.19 mg/m3 13.8 °C 89.95 % 1,005.30 mbar 6.02 m/s 188.69 Deg 1.55 µg/m3
2021-11-28 09:00 20.95 µg/m3 0.03 µg/m3 9.03 µg/m3 3.53 µg/m3 0.16 mg/m3 14.09 °C 85.75 % 1,005.57 mbar 6.08 m/s 195.73 Deg 1.34 µg/m3
2021-11-28 08:00 8.91 µg/m3 -0.01 µg/m3 9.03 µg/m3 3.49 µg/m3 0.16 mg/m3 14.39 °C 82.17 % 1,005.02 mbar 5.96 m/s 200.43 Deg 0.5 µg/m3
2021-11-28 07:00 8.1 µg/m3 0.03 µg/m3 8.73 µg/m3 3.28 µg/m3 0.15 mg/m3 14.71 °C 79.93 % 1,005.19 mbar 7.41 m/s 199.4 Deg 0.29 µg/m3
2021-11-28 06:00 9.96 µg/m3 0.01 µg/m3 8.81 µg/m3 3.19 µg/m3 0.13 mg/m3 15.88 °C 67.37 % 1,004.79 mbar 8.2 m/s 202.37 Deg 0.51 µg/m3
2021-11-28 05:00 7.75 µg/m3 -0.01 µg/m3 9.74 µg/m3 3.54 µg/m3 0.12 mg/m3 18.21 °C 59.32 % 1,004.52 mbar 9.22 m/s 205.2 Deg 1.47 µg/m3
2021-11-28 04:00 5.09 µg/m3 0.02 µg/m3 10.39 µg/m3 4 µg/m3 0.08 mg/m3 18.62 °C 60.21 % 1,004.29 mbar 8.53 m/s 199.15 Deg 0.45 µg/m3
2021-11-28 03:00 5.77 µg/m3 0.03 µg/m3 11.46 µg/m3 4.27 µg/m3 0.02 mg/m3 18.51 °C 56.69 % 1,004.48 mbar 7.56 m/s 203.17 Deg 0.18 µg/m3

It is to be noted that the data is provisional and subject to quality assurance procedures. For validated data kindly refer your request to contact.air@era.org.mt